Weather History for GMME - March, 2013

Change the Weather History Date:

Wednesday, March 13, 2013

  Actual Average Record
Temperature  
Mean Temperature 54 °F -  
Max Temperature 60 °F 66 °F 77 °F (2007)
Min Temperature 46 °F 49 °F 39 °F (2012)
Degree Days  
Heating Degree Days 11    
Growing Degree Days 4 (Base 50)    
Moisture  
Dew Point 50 °F    
Average Humidity 82    
Maximum Humidity 100    
Minimum Humidity 54    
Precipitation  
Precipitation 0.08 in 0.08 in - ()
Sea Level Pressure  
Sea Level Pressure 29.95 in    
Wind  
Wind Speed 7 mph ()    
Max Wind Speed 16 mph    
Max Gust Speed -    
Visibility 3.4 miles    
Events Rain    
Averages and records for this station are not official NWS values.
T = Trace of Precipitation, MM = Missing Value Source: Averaged Metar Reports

Daily Weather History Graph

Daily Weather History Graph

Search for Another Location

Airport or City:

Trip Planner

Search our weather history database for the weather conditions in past years. The results will help you decide how hot, cold, wet, or windy it might be!

Date:

Astronomy

Mar. 13, 2013 Rise Set
Actual Time 6:40 AM WET 6:33 PM WET
Civil Twilight 6:15 AM WET 6:58 PM WET
Nautical Twilight 5:46 AM WET 7:27 PM WET
Astronomical Twilight 5:17 AM WET 7:56 PM WET
Moon 7:18 AM WET (3/13) 8:27 PM WET (3/13)
Length of Visible Light 12h 42m
Length of Day
11h 53m
Waxing Crescent, 3% of the Moon is Illuminated
Mar 13
Waxing Crescent
Mar 19
First Quarter
Mar 27
Full
Apr 3
Last Quarter
Apr 10
New

Hourly Weather History & Observations

Time (WET) Temp. Dew Point Humidity Pressure Visibility Wind Dir Wind Speed Gust Speed Precip Events Conditions
12:00 AM 59 °F 58 °F 93% 29.87 in 2 mi WNW 9.2 mph - - Rain Light Rain
12:00 AM 59.0 °F 57.2 °F 94% 29.86 in 2.5 mi WNW 9.2 mph - N/A Rain Light Rain
12:30 AM 59.0 °F 57.2 °F 94% 29.83 in 2.5 mi WNW 9.2 mph - N/A Rain Light Rain
1:00 AM 57.2 °F 57.2 °F 100% 29.83 in 2.5 mi NW 9.2 mph - N/A Rain Light Rain
1:30 AM 57.2 °F 57.2 °F 100% 29.83 in 2.5 mi WNW 5.8 mph - N/A Rain Light Rain
2:00 AM 57.2 °F 57.2 °F 100% 29.83 in 2.5 mi West 5.8 mph - N/A Rain Light Rain
2:30 AM 57.2 °F 57.2 °F 100% 29.83 in 2.5 mi West 6.9 mph - N/A Rain Light Rain
3:00 AM 57 °F 56 °F 97% 29.84 in 2 mi WNW 8.1 mph - - Rain Light Rain
3:00 AM 57.2 °F 57.2 °F 100% 29.83 in 2.5 mi WNW 8.1 mph - N/A Rain Light Rain
3:30 AM 57.2 °F 55.4 °F 94% 29.83 in 2.5 mi WNW 10.4 mph - N/A Rain Light Rain
4:00 AM 57.2 °F 55.4 °F 94% 29.83 in 2.5 mi NW 8.1 mph - N/A Rain Light Rain
4:30 AM 57.2 °F 55.4 °F 94% 29.83 in 2.5 mi NW 9.2 mph - N/A Rain Light Rain
5:00 AM 55.4 °F 55.4 °F 100% 29.83 in 2.5 mi NNW 9.2 mph - N/A Rain Light Rain
5:30 AM 55.4 °F 53.6 °F 94% 29.86 in 2.5 mi NNW 9.2 mph - N/A Rain Light Rain
6:00 AM 55 °F 54 °F 93% 29.87 in 2 mi NNW 8.1 mph - - Rain Light Rain
6:00 AM 55.4 °F 53.6 °F 94% 29.86 in 2.5 mi NNW 8.1 mph - N/A Rain Light Rain
6:30 AM 55.4 °F 53.6 °F 94% 29.86 in 2.5 mi NNW 5.8 mph - N/A Rain Light Rain
7:00 AM 55.4 °F 53.6 °F 94% 29.86 in 2.5 mi Calm Calm - N/A Rain Light Rain
7:30 AM 55.4 °F 53.6 °F 94% 29.89 in 2.5 mi Calm Calm - N/A Rain Rain
7:36 AM 55.4 °F 53.6 °F 94% 29.89 in 3.1 mi Calm Calm - N/A   Mostly Cloudy
8:00 AM 55.4 °F 53.6 °F 94% 29.89 in 3.1 mi NW 8.1 mph - N/A   Mostly Cloudy
8:30 AM 55.4 °F 53.6 °F 94% 29.92 in 3.1 mi NW 5.8 mph - N/A   Mostly Cloudy
8:43 AM 55.4 °F 53.6 °F 94% 29.92 in 1.9 mi NNW 9.2 mph - N/A Rain Light Rain
9:00 AM 55 °F 54 °F 93% 29.94 in 2 mi NW 10.4 mph - - Rain Light Rain
9:00 AM 55.4 °F 53.6 °F 94% 29.92 in 1.9 mi NW 10.4 mph - N/A Rain Light Rain
9:30 AM 53.6 °F 51.8 °F 94% 29.95 in 1.9 mi NNW 9.2 mph - N/A Rain Light Rain
9:46 AM 55.4 °F 53.6 °F 94% 29.95 in 3.1 mi NW 5.8 mph - N/A   Mostly Cloudy
10:00 AM 55.4 °F 53.6 °F 94% 29.95 in 3.1 mi NW 6.9 mph - N/A   Mostly Cloudy
10:30 AM 57.2 °F 53.6 °F 88% 29.95 in 3.1 mi North 10.4 mph - N/A   Mostly Cloudy
11:00 AM 59.0 °F 51.8 °F 77% 29.95 in 3.1 mi North 12.7 mph - N/A   Mostly Cloudy
11:30 AM 59.0 °F 48.2 °F 67% 29.98 in 3.1 mi North 13.8 mph - N/A   Mostly Cloudy
12:00 PM 58 °F 49 °F 65% 29.99 in 3 mi North 15.0 mph - -   Overcast
12:00 PM 59.0 °F 50.0 °F 72% 29.98 in 3.1 mi North 15.0 mph - N/A   Mostly Cloudy
12:30 PM 59.0 °F 50.0 °F 72% 29.98 in 3.1 mi NNE 13.8 mph - N/A   Mostly Cloudy
1:00 PM 59.0 °F 48.2 °F 67% 29.98 in 5.0 mi NNE 12.7 mph - N/A   Mostly Cloudy
1:30 PM 59.0 °F 48.2 °F 67% 29.98 in 5.0 mi North 16.1 mph - N/A   Mostly Cloudy
2:00 PM 59.0 °F 48.2 °F 67% 29.98 in 5.0 mi North 12.7 mph - N/A   Mostly Cloudy
2:30 PM 59.0 °F 46.4 °F 63% 29.98 in 5.0 mi North 11.5 mph - N/A   Mostly Cloudy
3:00 PM 58 °F 46 °F 54% 30.00 in 5 mi North 12.7 mph - -   Mostly Cloudy
3:00 PM 57.2 °F 46.4 °F 67% 29.98 in 5.0 mi North 12.7 mph - N/A   Mostly Cloudy
3:30 PM 57.2 °F 46.4 °F 67% 29.98 in 5.0 mi North 10.4 mph - N/A   Mostly Cloudy
4:00 PM 57.2 °F 46.4 °F 67% 29.98 in 5.0 mi North 11.5 mph - N/A   Mostly Cloudy
4:30 PM 57.2 °F 46.4 °F 67% 30.01 in 5.0 mi North 10.4 mph - N/A   Mostly Cloudy
5:00 PM 55.4 °F 44.6 °F 67% 29.98 in 5.0 mi North 9.2 mph - N/A   Mostly Cloudy
5:30 PM 55.4 °F 44.6 °F 67% 30.01 in 5.0 mi North 8.1 mph - N/A   Mostly Cloudy
6:00 PM 54 °F 43 °F 55% 30.03 in 5 mi North 9.2 mph - -   Mostly Cloudy
6:00 PM 53.6 °F 42.8 °F 67% 30.01 in 5.0 mi North 9.2 mph - N/A   Mostly Cloudy
6:30 PM 53.6 °F 42.8 °F 67% 30.04 in 5.0 mi North 8.1 mph - N/A   Mostly Cloudy
7:00 PM 53.6 °F 44.6 °F 72% 30.04 in 5.0 mi North 5.8 mph - N/A   Mostly Cloudy
7:30 PM 53.6 °F 42.8 °F 67% 30.04 in 5.0 mi North 1.2 mph - N/A   Mostly Cloudy
8:00 PM 53.6 °F 41.0 °F 62% 30.04 in 3.7 mi North 5.8 mph - N/A   Mostly Cloudy
8:30 PM 51.8 °F 42.8 °F 71% 30.06 in 3.7 mi North 2.3 mph - N/A   Mostly Cloudy
9:00 PM 51 °F 43 °F 65% 30.08 in 4 mi Calm Calm - -   Mostly Cloudy
9:00 PM 51.8 °F 42.8 °F 71% 30.06 in 3.7 mi Calm Calm - N/A   Mostly Cloudy
9:30 PM 48.2 °F 42.8 °F 82% 30.06 in 3.7 mi Calm Calm - N/A   Mostly Cloudy
10:00 PM 48.2 °F 42.8 °F 82% 30.06 in 3.7 mi Calm Calm - N/A   Mostly Cloudy
10:30 PM 48.2 °F 42.8 °F 82% 30.06 in 3.7 mi Calm Calm - N/A   Mostly Cloudy
11:00 PM 48.2 °F 42.8 °F 82% 30.06 in 3.7 mi Calm Calm - N/A   Mostly Cloudy
11:30 PM 46.4 °F 42.8 °F 87% 30.06 in 3.7 mi Calm Calm - N/A   Mostly Cloudy